Home   Weather   Marigot   Past weeks

Past Weather in Marigot, Saint Martin — Yesterday and Last 2 Weeks

Now
86 °F

Scattered clouds.


Feels Like: 99 °F
Forecast: N/A
Wind: 14 mph from East

Location: Juliana Airport - Saint Maarten

Current Time: Aug 20, 2017 at 5:22:22 pm

Latest Report: Aug 20, 2017 at 5:00 pm


Visibility: N/A

Pressure: 29.95 "Hg

Humidity: 79%

Dew Point: 79 °F

Location of MarigotLocation

Past Weather in Marigot — Graph

°F

Marigot Temperature Yesterday

Maximum temperature yesterday: 88 °F (at 11:00 am)
Minimum temperature yesterday: 82 °F (at 2:00 am)
Average temperature yesterday: 84 °F

High & Low Weather Summary for the Past Weeks

 TemperatureHumidityPressure
High90 °F (Aug 10, 1:00 pm)100% (Aug 16, 4:21 pm)30.07 "Hg (Aug 16, 4:21 pm)
Low77 °F (Aug 16, 4:21 pm)38% (Aug 5, 5:00 pm)29.86 "Hg (Aug 19, 3:00 am)
Average84 °F81%29.97 "Hg
* Reported Aug 5 4:00 pm — Aug 20 4:00 pm, Marigot. Weather by CustomWeather, © 2017

Note: Actual official high and low records may vary slightly from our data, if they occured in-between our weather recording intervals... More about our weather records

Advertising

Marigot Weather History for the Previous 24 Hours

Scroll right to see more
 ConditionsComfort  
Time TempWeatherWind HumidityBarometerVisibility
4:00 pm
Sun, Aug 20
86 °FWarm.15 mph79%29.92 "HgN/A
3:00 pm86 °FSprinkles. Partly sunny.14 mph79%29.95 "HgN/A
2:00 pm88 °FWarm.16 mph75%29.95 "HgN/A
1:00 pm88 °FPartly sunny.15 mph79%29.98 "HgN/A
12:00 pm88 °FScattered clouds.15 mph75%29.98 "HgN/A
11:00 am88 °FPassing clouds.14 mph79%29.98 "HgN/A
10:00 am86 °FPassing clouds.13 mph84%29.98 "HgN/A
9:00 am86 °FPassing clouds.13 mph84%29.98 "HgN/A
8:00 am84 °FPassing clouds.8 mph89%29.95 "HgN/A
7:00 am82 °FLight rain. Scattered clouds.10 mph89%29.95 "HgN/A
6:00 am82 °FPartly sunny.6 mph89%29.92 "HgN/A
5:00 am81 °FPassing clouds.8 mph94%29.89 "HgN/A
4:00 am79 °FSprinkles. Passing clouds.12 mph94%29.89 "HgN/A
3:00 am81 °FPassing clouds.16 mph84%29.89 "HgN/A
2:00 am81 °FPassing clouds.15 mph100%29.89 "HgN/A
1:00 am79 °FSprinkles. Passing clouds.12 mph100%29.92 "HgN/A
12:24 am81 °FLots of rain. Passing clouds.8 mph100%29.92 "Hg1 mi
12:00 am81 °FPassing clouds.3 mph100%29.92 "HgN/A
11:00 pm
Sat, Aug 19
82 °FRain showers. Passing clouds.12 mph94%29.95 "HgN/A
10:00 pm84 °FPassing clouds.7 mph94%29.92 "HgN/A
9:00 pm82 °FPassing clouds.7 mph100%29.92 "HgN/A
8:00 pm82 °FPassing clouds.5 mph94%29.89 "HgN/A
7:00 pm82 °FWarm.6 mph89%29.89 "HgN/A
5:00 pm84 °FWarm.3 mph89%29.86 "HgN/A
Weather by CustomWeather, © 2017

See weather overviewHow to use our weather pages